CDT,Max TemperatureF,Mean TemperatureF,Min TemperatureF,Max Dew PointF,MeanDew PointF,Min DewpointF,Max Humidity, Mean Humidity, Min Humidity, Max Sea Level PressureIn, Mean Sea Level PressureIn, Min Sea Level PressureIn, Max VisibilityMiles, Mean VisibilityMiles, Min VisibilityMiles, Max Wind SpeedMPH, Mean Wind SpeedMPH, Max Gust SpeedMPH,PrecipitationIn, CloudCover, Events, WindDirDegrees
2013-8-1,78,66,55,61,53,50,84,61,39,30.06,29.99,29.88,10,10,10,8,2,,0.00,1,,243
2013-8-2,76,67,57,56,51,45,81,58,35,30.07,29.97,29.88,10,10,7,12,4,16,0.00,0,,319
2013-8-3,76,64,51,54,48,44,89,59,32,30.22,30.16,30.07,10,10,10,9,2,,0.00,1,,335
2013-8-4,73,62,51,54,51,45,87,67,37,30.26,30.17,30.01,10,10,10,8,2,,0.00,1,,141
2013-8-5,80,70,61,64,60,54,93,75,49,30.04,29.89,29.81,10,10,3,17,6,30,0.45,5,Rain-Thunderstorm,223
2013-8-6,81,68,55,67,59,53,92,78,53,29.87,29.80,29.70,10,10,4,20,3,33,0.33,2,Rain-Thunderstorm,196
2013-8-7,74,66,58,59,53,46,92,67,38,30.04,29.96,29.81,10,10,7,10,5,,0.00,1,,330
2013-8-8,73,63,53,60,55,51,91,75,52,30.08,30.03,30.00,10,10,10,10,2,,0.00,3,,212
2013-8-9,74,64,55,59,53,47,93,66,40,30.15,30.07,30.02,10,10,7,14,4,23,0.00,3,,287
2013-8-10,74,64,54,57,52,48,88,63,43,30.21,30.17,30.10,10,10,10,7,1,,0.00,3,,313
2013-8-11,79,70,62,62,59,54,86,70,48,30.11,30.06,30.01,10,10,10,5,0,,0.00,6,,15
2013-8-12,78,68,58,61,54,48,87,62,35,30.09,30.05,30.03,10,10,10,13,4,16,0.00,1,,323
2013-8-13,74,64,53,55,49,41,93,64,31,30.22,30.17,30.11,10,10,7,8,4,,0.00,2,,8
2013-8-14,75,62,49,55,50,45,90,66,34,30.21,30.17,30.12,10,10,10,9,1,,0.00,2,,238
2013-8-15,76,64,51,60,54,49,89,70,43,30.15,30.12,30.09,10,10,10,8,2,,0.00,1,,215
2013-8-16,77,67,57,59,55,50,88,67,40,30.21,30.18,30.15,10,10,10,10,2,,0.00,2,,201
2013-8-17,79,66,54,56,54,50,88,64,40,30.21,30.17,30.12,10,10,10,13,3,20,0.00,0,,169
2013-8-18,80,68,57,58,54,51,82,59,36,30.15,30.09,30.01,10,10,7,14,6,23,0.00,1,,174
2013-8-19,85,75,65,68,63,57,80,67,52,30.04,29.96,29.90,10,10,10,9,5,16,0.00,2,,174
2013-8-20,85,76,68,71,67,64,86,73,57,29.93,29.89,29.87,10,10,7,10,4,16,0.00,1,,161
2013-8-21,85,78,70,72,67,56,90,73,45,30.03,29.92,29.84,10,8,7,8,5,,0.00,2,,131
2013-8-22,83,73,63,57,50,43,70,48,25,30.16,30.12,30.05,10,10,10,13,5,21,0.00,1,,28
2013-8-23,84,69,54,65,57,49,80,62,41,30.16,30.11,30.04,10,10,10,12,3,17,0.00,0,,123
2013-8-24,88,79,70,70,67,64,81,68,50,30.06,30.00,29.93,10,10,10,17,10,30,0.00,1,Thunderstorm,153
2013-8-25,92,84,75,73,70,68,80,66,49,30.01,29.97,29.94,10,10,10,15,10,22,0.00,0,Thunderstorm,185
2013-8-26,92,84,75,74,72,70,89,70,50,29.99,29.93,29.85,10,10,7,13,5,17,0.00,1,,178
2013-8-27,90,82,73,74,72,68,87,73,57,29.95,29.85,29.81,10,10,10,10,4,,0.00,1,,51
2013-8-28,86,76,66,71,67,64,93,76,52,30.04,30.00,29.95,10,10,5,7,1,,0.00,0,,75
2013-8-29,90,80,71,73,70,67,90,70,45,30.02,29.94,29.86,10,9,5,9,3,,0.00,2,,164
2013-8-30,83,75,67,70,64,61,86,71,50,29.97,29.91,29.85,10,10,10,13,6,17,0.00,3,,6
2013-8-31,86,73,60,67,62,57,92,73,47,29.91,29.85,29.73,10,10,7,15,3,29,0.11,1,Rain-Thunderstorm,188